contact:dominique.lefevre@mio.osupytheas.fr, maurice.libes@osupytheas.fr
Project:EMSO Ligure-ouest http://www.emso-fr.org/EMSO-France
Sensor Aquadopp, line 13 Serial AQD14315 
DOI : "https://doi.org/10.17882/74513; https://doi.org/10.17882/83244" 
Title:EMSO Ligure Ouest : Data ligne ALBATROSS capteur AQUADOPP - deploiement 2021
Id,Date,Profondeur,Latitude,Longitude,X_East,Y_North,Z_Up,Amplitude_X,Amplitude_Y,Amplitude_Z,Batterie,SoundSpeed,Heading,Pitch,Roll,Pressure,Temperature,Speed,Direction
, , m, degrees North, degrees East, m.s-1, m.s-1,m.s-1, 1, 1, 1, Volt, m.s-1, degree, degree, degree, dbar, degree_C, m.s-1, degree
07,2021-11-03T21:30:00,1500.0,42.79,6.0312,0.027,0.022,0.009,48.0,46.0,46.0,12.7,1504.0,10.8,-0.3,-0.4,1472.931,13.1,0.034,50.8
07,2021-11-03T22:00:00,1500.0,42.79,6.0312,0.021,0.014,-0.003,46.0,47.0,48.0,12.7,1504.0,10.9,-0.1,-0.4,1472.903,13.1,0.025,56.3
07,2021-11-03T22:30:00,1500.0,42.79,6.0312,0.018,0.02,0.005,50.0,48.0,47.0,12.7,1504.0,9.4,0.0,-0.4,1472.874,13.1,0.026,42.0
07,2021-11-03T23:00:00,1500.0,42.79,6.0312,0.025,0.015,-0.003,49.0,48.0,45.0,12.7,1504.0,11.6,-0.1,-0.4,1472.856,13.1,0.029,59.0
07,2021-11-03T23:30:00,1500.0,42.79,6.0312,0.02,0.02,0.01,45.0,47.0,46.0,12.7,1504.0,12.5,-0.4,-0.3,1472.837,13.1,0.028,45.0
07,2021-11-04T00:00:00,1500.0,42.79,6.0312,0.023,0.012,0.014,46.0,46.0,49.0,12.7,1504.0,14.6,0.0,-0.4,1472.824,13.1,0.025,62.4
07,2021-11-04T00:30:00,1500.0,42.79,6.0312,0.025,0.014,-0.006,46.0,47.0,49.0,12.7,1504.0,16.5,-0.3,-0.4,1472.799,13.1,0.028,60.7
07,2021-11-04T01:00:00,1500.0,42.79,6.0312,0.024,0.008,0.005,46.0,47.0,47.0,12.7,1504.0,19.1,-0.2,-0.3,1472.8,13.1,0.025,71.6
07,2021-11-04T01:30:00,1500.0,42.79,6.0312,0.014,0.016,0.006,46.0,49.0,49.0,12.7,1504.0,20.9,-0.2,-0.3,1472.815,13.1,0.021,41.2
07,2021-11-04T02:00:00,1500.0,42.79,6.0312,0.018,0.012,0.001,47.0,47.0,47.0,12.7,1504.0,23.4,-0.1,-0.1,1472.833,13.1,0.021,56.3
07,2021-11-04T02:30:00,1500.0,42.79,6.0312,0.013,0.018,-0.017,49.0,45.0,46.0,12.7,1504.0,25.4,0.0,-0.3,1472.826,13.1,0.022,35.8
07,2021-11-04T03:00:00,1500.0,42.79,6.0312,0.024,0.015,0.001,47.0,49.0,47.0,12.7,1504.0,24.8,-0.1,-0.1,1472.818,13.1,0.028,58.0
07,2021-11-04T03:30:00,1500.0,42.79,6.0312,0.019,0.016,0.015,47.0,49.0,49.0,12.7,1504.0,29.9,-0.1,-0.4,1472.881,13.11,0.024,49.9
07,2021-11-04T04:00:00,1500.0,42.79,6.0312,0.014,0.022,-0.004,47.0,48.0,47.0,12.7,1504.0,28.8,-0.3,-0.3,1472.955,13.1,0.026,32.5
07,2021-11-04T04:30:00,1500.0,42.79,6.0312,0.02,0.018,0.018,46.0,49.0,45.0,12.7,1504.0,29.2,-0.2,-0.3,1472.968,13.1,0.026,48.0
07,2021-11-04T05:00:00,1500.0,42.79,6.0312,0.018,0.031,0.001,47.0,47.0,47.0,12.7,1504.0,30.7,0.0,-0.4,1472.987,13.1,0.035,30.1
07,2021-11-04T05:30:00,1500.0,42.79,6.0312,0.022,0.024,-0.013,47.0,47.0,47.0,12.7,1504.0,28.4,-0.1,-0.3,1472.992,13.1,0.032,42.5
07,2021-11-04T06:00:00,1500.0,42.79,6.0312,0.02,0.026,0.0,48.0,48.0,47.0,12.7,1504.0,27.9,-0.2,-0.4,1472.999,13.1,0.032,37.6
07,2021-11-04T06:30:00,1500.0,42.79,6.0312,0.031,0.032,-0.002,46.0,47.0,47.0,12.7,1504.0,28.5,0.1,-0.3,1472.998,13.1,0.044,44.1
07,2021-11-04T07:00:00,1500.0,42.79,6.0312,0.028,0.019,0.01,46.0,46.0,47.0,12.7,1504.0,31.2,0.0,-0.4,1473.003,13.1,0.033,55.8
07,2021-11-04T07:30:00,1500.0,42.79,6.0312,0.026,0.025,-0.001,47.0,48.0,48.0,12.7,1504.0,28.9,0.2,-0.1,1472.987,13.1,0.036,46.1
07,2021-11-04T08:00:00,1500.0,42.79,6.0312,0.03,0.013,-0.001,47.0,48.0,46.0,12.7,1504.0,32.3,-0.2,-0.1,1473.001,13.1,0.032,66.6
07,2021-11-04T08:30:00,1500.0,42.79,6.0312,0.032,0.018,0.016,47.0,48.0,46.0,12.7,1504.0,36.3,0.0,-0.4,1472.968,13.1,0.036,60.6
07,2021-11-04T09:00:00,1500.0,42.79,6.0312,0.026,0.023,-0.01,48.0,46.0,47.0,12.7,1504.0,34.7,0.1,-0.3,1472.952,13.1,0.034,48.5
07,2021-11-04T09:30:00,1500.0,42.79,6.0312,0.03,0.013,0.01,45.0,46.0,48.0,12.7,1504.0,38.7,-0.2,-0.1,1472.947,13.1,0.032,66.6
07,2021-11-04T10:00:00,1500.0,42.79,6.0312,0.029,0.0,0.001,48.0,46.0,45.0,12.7,1504.0,37.4,-0.1,-0.4,1472.923,13.1,0.028,90.0
07,2021-11-04T10:30:00,1500.0,42.79,6.0312,0.03,0.009,0.014,46.0,46.0,46.0,12.7,1504.0,36.8,-0.1,-0.4,1472.89,13.1,0.031,73.3
07,2021-11-04T11:00:00,1500.0,42.79,6.0312,0.033,0.016,0.004,45.0,47.0,47.0,12.7,1504.0,34.0,-0.2,-0.4,1472.867,13.1,0.036,64.1
07,2021-11-04T11:30:00,1500.0,42.79,6.0312,0.027,-0.001,-0.006,45.0,48.0,45.0,12.7,1504.0,36.2,0.0,-0.3,1472.862,13.1,0.027,92.1
07,2021-11-04T12:00:00,1500.0,42.79,6.0312,0.027,0.015,0.023,47.0,49.0,46.0,12.7,1504.0,38.0,-0.4,-0.4,1472.843,13.1,0.03,60.9
07,2021-11-04T12:30:00,1500.0,42.79,6.0312,0.038,0.007,0.0,46.0,46.0,47.0,12.7,1504.0,39.2,-0.2,-0.1,1472.82,13.1,0.038,79.6
07,2021-11-04T13:00:00,1500.0,42.79,6.0312,0.035,0.006,-0.002,47.0,47.0,46.0,12.7,1504.0,39.2,0.2,-0.3,1472.849,13.1,0.035,80.3
07,2021-11-04T13:30:00,1500.0,42.79,6.0312,0.024,0.0,-0.008,47.0,46.0,45.0,12.7,1504.0,42.3,0.0,-0.2,1472.851,13.1,0.024,90.0
07,2021-11-04T14:00:00,1500.0,42.79,6.0312,0.033,0.005,-0.004,46.0,46.0,49.0,12.7,1504.0,43.3,0.1,-0.3,1472.809,13.1,0.033,81.4
07,2021-11-04T14:30:00,1500.0,42.79,6.0312,0.034,0.006,-0.004,47.0,48.0,52.0,12.7,1504.0,44.3,-0.2,-0.2,1472.852,13.1,0.034,80.0
07,2021-11-04T15:00:00,1500.0,42.79,6.0312,0.032,0.008,0.0,46.0,48.0,46.0,12.7,1504.0,46.0,-0.2,-0.4,1472.856,13.1,0.032,76.0
07,2021-11-04T15:30:00,1500.0,42.79,6.0312,0.029,0.009,-0.02,47.0,47.0,47.0,12.7,1504.0,45.1,0.0,-0.3,1472.901,13.1,0.03,72.8
07,2021-11-04T16:00:00,1500.0,42.79,6.0312,0.034,0.019,-0.009,45.0,49.0,50.0,12.7,1504.0,47.0,0.0,-0.3,1472.931,13.1,0.038,60.8
07,2021-11-04T16:30:00,1500.0,42.79,6.0312,0.025,0.009,-0.002,47.0,45.0,48.0,12.7,1504.0,48.8,-0.4,-0.5,1472.972,13.1,0.026,70.2
07,2021-11-04T17:00:00,1500.0,42.79,6.0312,0.035,0.018,0.01,48.0,47.0,46.0,12.7,1504.0,42.6,-0.4,-0.4,1472.98,13.1,0.039,62.8
07,2021-11-04T17:30:00,1500.0,42.79,6.0312,0.033,0.013,0.017,46.0,48.0,45.0,12.7,1504.0,43.7,-0.1,-0.4,1473.013,13.1,0.035,68.5
07,2021-11-04T18:00:00,1500.0,42.79,6.0312,0.03,0.019,0.006,45.0,48.0,48.0,12.7,1504.0,42.4,0.0,-0.4,1473.043,13.1,0.035,57.7
07,2021-11-04T18:30:00,1500.0,42.79,6.0312,0.036,0.007,0.007,47.0,46.0,48.0,12.7,1504.0,44.2,-0.1,-0.1,1473.015,13.1,0.036,79.0
07,2021-11-04T19:00:00,1500.0,42.79,6.0312,0.029,0.009,0.004,45.0,48.0,47.0,12.7,1504.0,46.0,-0.2,-0.2,1473.053,13.1,0.03,72.8
07,2021-11-04T19:30:00,1500.0,42.79,6.0312,0.032,0.014,0.008,45.0,47.0,48.0,12.7,1504.0,45.2,0.0,-0.4,1473.05,13.1,0.034,66.4
07,2021-11-04T20:00:00,1500.0,42.79,6.0312,0.027,0.007,-0.01,48.0,46.0,45.0,12.7,1504.0,43.4,-0.1,-0.1,1473.046,13.1,0.027,75.5
07,2021-11-04T20:30:00,1500.0,42.79,6.0312,0.023,0.007,0.002,46.0,45.0,46.0,12.7,1504.0,39.2,0.2,-0.3,1473.007,13.1,0.024,73.1
07,2021-11-04T21:00:00,1500.0,42.79,6.0312,0.013,0.013,0.0,46.0,48.0,47.0,12.7,1504.0,43.3,0.2,-0.4,1472.979,13.1,0.018,45.0
